Location: Proctor
(47.8934°N, 114.3048°W)
Time: 17:37:27
(UTC+00:00)

Transit 4A - Pass Details

Date: 17 May 2025
Orbit: 866 x 975 km, 66.8° (Epoch: 13 June)

Event Time Altitude Azimuth Distance (km) Brightness Sun altitude
Rises 09:27:23 0° 325° (NW) 3,610 11.4 -18.0°
Reaches altitude 10° 09:30:25 10° 338° (NNW) 2,645 10.8 -17.8°
Maximum altitude 09:35:30 26° 34° (NE) 1,711 10.1 -17.4°
Drops below altitude 10° 09:40:27 10° 91° (E) 2,573 10.6 -16.9°
Sets 09:43:21 0° 103° (ESE) 3,493 11.2 -16.7°
